Location: Ammerl�gen
(47.2167°N, 9.6000°E)
Time: 11:16:11
(UTC+00:00)

ATLAS 3B R/B - Pass Details

Date: 21 April 2021
Orbit: 1006 x 1189 km, 63.8° (Epoch: 21 April)

Event Time Altitude Azimuth Distance (km) Brightness Sun altitude
Rises 20:09:03 0° 315° (NW) 3,903 7.4 -17.0°
Reaches altitude 10° 20:11:55 10° 307° (NW) 2,971 6.3 -17.3°
Maximum altitude 20:18:07 34° 246° (WSW) 1,786 4.1 -18.1°
Enters shadow 20:24:24 10° 185° (S) 3,030 4.7 -18.9°
